Location: Anare
(10.6236°N, 66.6506°W)
Time: 14:27:26
(UTC+00:00)

USA 229 - Pass Details

Date: 18 April 2024
Orbit: 890 x 1322 km, 63.4° (Epoch: 18 May)

Event Time Altitude Azimuth Distance (km) Brightness Sun altitude
Rises 23:15:25 0° 187° (S) 3,505 6.3 -9.9°
Reaches altitude 10° 23:18:04 10° 179° (S) 2,550 5.6 -10.5°
Maximum altitude 23:23:29 39° 112° (ESE) 1,305 3.7 -11.8°
Drops below altitude 10° 23:29:00 10° 44° (NE) 2,606 5.5 -13.1°
Sets 23:31:43 0° 37° (NE) 3,589 6.2 -13.7°
